Retour au catalogue

ATLAS 5 CENTAUR DEB

ActifHEO
NORAD 46847·DEBRIS·🇺🇸 United States

Lancé Oct 17, 2018 depuis Cape Canaveral Space Force Station

Loading…

Prochains Passages (prochaines 24 heures)

TLE

FraisSource: Space-Track

Époque: Sep 7, 2026, 21:16 UTC

1 46847U 18079DC  26250.88613930 -.00000179  00000-0  00000-0 0  9995
2 46847  13.6582  35.1289 4694569 308.4773  17.9095  1.77277133 37907

Suivez ATLAS 5 CENTAUR DEB en temps réel avec AllMySat

Download on the App Store